Weather in Ostrovtsy

Russia / Moscow Oblast     55°35′28″N   37°59′33″E
temp.,
°C
wind,
m/s
gust,
m/s
humid.,
%
clouds,
%
prec.,
mm/h
press.,
hPa
HPBL,
m
25 february, thu
thu2500:00−13ssw4894100 0.2 1027292
03:00−10ssw4895100 1.1 1024327
06:00−6sw51195100 2.8 1019421
09:00+1wsw61495100 3.9 1015523
12:00+2w614100100 0.4 1013373
15:00+2wnw614100100 0.4 1014435
18:00+2wnw410100100 0.0 1014266
21:00+1w37100100 0.0 1015150
26 february, fri
fri2600:00+1wsw4899100 0.2 1014194
03:00+2w513100100 0.9 1013292
06:00+2wsw613100100 0.4 1010315
09:00+2wsw513100100 0.8 1009302
12:00+2wsw715100100 0.3 1006383
15:00+3wsw715100100 0.8 1004444
18:00+2w7169292 0.3 1003715
21:00+1w8168796 0.3 1004867
27 february, sat
sat2700:00+1w8158892 0.0 1003751
03:000w7158760 0.0 1003545
06:000wnw7149252 0.0 1002607
09:00+1wnw6129275 0.0 1003508
12:00+1nw5910099 0.0 1004552
15:00+1nw499999 0.1 1006534
18:000nw4997100 0.1 1007402
21:00−1nw51096100 0.3 1009438
28 february, sun
sun2800:00−1nw499897 0.6 1010449
03:00−2nnw6119699 1.5 1012550
06:00−3nnw5119493 0.3 1013502
09:00−4nnw5109293 0.4 1015513
12:00−2nnw698798 0.1 1016783
15:00−2nnw688798 0.1 1018877
18:00−3nnw5990100 0.1 1019560
21:00−5n489199 0.1 1022305
1 march, mon
mon100:00−4n3689100 0.1 1024392
03:00−5nnw369099 0.1 1026274
06:00−5nw2689100 0.0 1027347
09:00−6wnw359597 0.0 1028213
12:00−3wnw458768 0.0 1029516
15:00−1w588561 0.0 1028531
18:00−2w5109099 0.0 1028366
21:00−1w5119399 0.0 1027497